Weather in Šušanj

Montenegro     42°06′48″N   19°06′09″E
temp.,
°C
wind,
m/s
gust,
m/s
humid.,
%
clouds,
%
prec.,
mm/h
press.,
hPa
HPBL,
m
26 july, mon
mon2623:00+27se33599 0.0 101425
02:00+27n00630 0.0 101411
05:00+27ese2254100 0.0 101413
08:00+27ese44615 0.0 101563
11:00+25sse55655 0.0 1016158
14:00+26ssw337118 0.0 1016131
17:00+27ese11665 0.0 101547
20:00+26s11735 0.0 101512
27 july, tue
tue2723:00+27se33660 0.0 101633
02:00+26ese44630 0.0 101651
05:00+27e33545 0.0 101618
08:00+28se11580 0.0 101626
11:00+27wsw22610 0.0 101759
14:00+27wnw44650 0.0 1016133
17:00+28nw34640 0.0 101596
20:00+27nnw44630 0.0 101545
28 july, wed
wed2823:00+28n335310 0.0 101512
02:00+27se12550 0.0 101511
05:00+28ne11565 0.0 101411
08:00+28wsw22510 0.0 101420
11:00+28w33535 0.0 101464
14:00+28nw67590 0.0 1014143
17:00+28nnw67630 0.0 1013100
20:00+29nnw55520 0.0 101223
29 july, thu
thu2923:00+30nne22480 0.0 101212
02:00+28ese33540 0.0 101322
05:00+28ene22540 0.0 101215
08:00+28sse11540 0.0 101323
11:00+28wsw22550 0.0 101365
14:00+28nw56610 0.0 1012120
17:00+28nw67620 0.0 1011115
20:00+29nnw44540 0.0 101022
30 july, fri
fri3023:00+28se44540 0.0 101118
02:00+27nne12680 0.0 101011
05:00+27ese33540 0.0 101022
08:00+28sse11550 0.0 101025
11:00+27s33570 0.0 101072
14:00+28wnw22630 0.0 100981
17:00+28n22580 0.0 100866
20:00+28se23610 0.0 100815